Temperature
6 6 6 6 6 6 6 6 6 6 6 7 7 7 7 7 7 7 7 7 7 7 7 7 7 7 7 6 6 6 6 5 5 5 5 4 4 4
5 6 6 6 6 6 6 6 6 6 6 6 6 7 7 7 7 7 7 7 7 7 7 7 6 6 6 6 6 6 5 5 5 4 4 4 4 4
5 5 5 5 5 6 6 6 6 6 6 6 6 6 6 6 7 7 7 7 7 7 7 6 6 6 6 6 5 5 5 5 4 4 4 4 3 3
5 5 5 5 5 5 5 5 5 5 6 5 6 6 6 6 6 6 6 6 6 6 6 6 6 6 5 5 5 5 5 4 4 4 4 3 3 3
5 5 5 5 5 5 5 5 5 5 5 5 5 5 5 5 5 5 6 6 6 6 6 6 6 5 5 5 5 4 4 4 4 4 3 3 3 3
4 4 4 4 4 4 4 5 5 5 5 5 5 5 5 5 5 5 5 5 5 5 5 5 5 5 5 5 4 4 4 4 3 3 3 3 2 2
4 4 4 4 4 4 4 4 4 4 4 4 4 4 4 4 4 4 4 4 4 4 4 4 4 4 4 4 4 4 3 3 3 3 2 2 2 2
3 3 4 4 4 4 4 4 4 4 4 4 4 4 4 4 4 3 3 3 3 4 4 4 4 4 4 4 3 3 3 3 3 2 2 2 2 2
3 3 3 3 3 3 3 3 3 3 3 3 4 4 4 4 3 3 3 3 3 3 3 3 3 3 3 3 3 3 2 2 2 2 2 2 1 1
3 3 3 3 3 3 3 3 3 3 3 3 3 3 3 3 3 3 3 3 3 3 3 3 3 3 3 3 2 2 2 2 2 2 1 1 1 1
2 2 3 3 3 2 2 3 3 3 3 3 3 3 3 3 3 3 2 2 2 2 2 2 2 2 1 2 2 1 1 1 1 1 1 1 0 0
2 2 2 2 2 2 2 2 2 2 2 3 3 3 2 2 2 2 2 2 2 1 1 2 1 1 0 1 1 1 1 1 1 1 0 0 0 -0
1 1 1 1 1 1 2 2 2 2 2 2 2 2 2 2 2 2 2 2 2 1 1 1 1 1 0 -0 0 0 0 1 1 0 0 -0 -0 -1
1 1 1 1 1 1 1 1 1 1 1 1 1 2 2 1 1 1 1 1 1 1 1 1 1 1 0 -0 -0 -0 -0 -0 0 -0 -0 -0 -1 -1
1 0 0 1 1 1 1 1 1 1 1 1 1 1 1 1 1 1 1 1 1 1 1 1 1 1 0 0 -0 -0 -1 -1 -1 -1 -1 -1 -1 -1
0 0 0 0 0 0 0 1 1 1 0 0 0 0 0 0 0 0 0 0 0 0 0 0 0 0 0 -0 -0 -0 -0 -1 -1 -1 -1 -1 -1 -2
-0 0 0 0 0 0 0 0 0 0 -0 -0 -0 -0 -0 0 -0 -0 -0 -0 -0 -0 -0 -0 -0 -0 -0 -0 -1 -1 -1 -1 -1 -1 -1 -1 -2 -2
-0 -0 -0 -0 -0 -0 -0 -0 -0 -0 -0 -0 -1 -1 -1 -1 -1 -1 -1 -1 -1 -1 -0 -1 -1 -1 -1 -1 -1 -1 -1 -1 -1 -1 -1 -1 -2 -2
-0 -1 -1 -1 -1 -1 -1 -1 -1 -1 -1 -1 -1 -1 -1 -1 -1 -1 -1 -1 -1 -1 -1 -1 -1 -1 -1 -2 -2 -2 -2 -2 -2 -2 -2 -2 -2 -2
-1 -1 -1 -1 -1 -1 -1 -1 -1 -1 -1 -1 -1 -1 -1 -1 -1 -2 -1 -1 -1 -1 -1 -1 -1 -1 -1 -2 -2 -3 -2 -2 -2 -2 -2 -2 -2 -2
-2 -2 -2 -1 -1 -1 -1 -1 -2 -2 -2 -2 -2 -2 -2 -2 -2 -2 -2 -2 -1 -1 -2 -2 -2 -2 -2 -2 -2 -3 -3 -3 -3 -2 -2 -2 -3 -3
-2 -2 -2 -2 -2 -2 -2 -2 -2 -2 -2 -2 -2 -2 -2 -2 -2 -2 -2 -2 -1 -2 -2 -2 -2 -2 -2 -2 -2 -3 -3 -3 -3 -3 -3 -3 -3 -3
-2 -2 -2 -2 -2 -2 -2 -2 -2 -2 -2 -2 -2 -2 -2 -2 -2 -2 -2 -2 -2 -2 -2 -2 -2 -2 -3 -3 -3 -3 -3 -3 -3 -3 -3 -3 -3 -3
Wind_Speed
5 5 4 3 4 4 4 4 5 6 7 5 4 3 4 5 7 7 8 11 13 13 13 12 11 11 11 10 9 10 9 9 8 8 8 8 8 8
4 4 4 3 3 3 3 4 4 6 7 5 5 3 3 4 7 6 8 11 12 13 13 12 11 11 11 10 9 9 9 8 7 7 7 7 7 7
4 4 4 4 3 3 3 3 4 4 7 7 4 3 4 5 4 5 7 7 8 11 12 11 11 10 10 10 9 7 7 7 7 6 6 6 5 6
4 4 4 4 4 4 4 4 5 4 5 7 5 4 4 4 4 4 4 5 6 8 9 10 10 9 9 9 8 7 6 7 6 6 6 6 5 6
4 4 5 4 4 4 4 4 4 4 4 5 6 4 3 2 2 3 3 3 3 5 6 7 8 8 8 8 8 7 6 6 6 6 5 5 5 5
4 4 4 4 5 4 4 4 3 4 3 4 4 3 3 2 1 2 3 2 2 3 3 4 5 6 7 7 7 6 6 5 6 5 5 4 5 5
3 3 4 4 5 4 4 3 3 3 3 4 4 3 3 2 2 2 3 3 2 2 2 2 2 2 4 6 6 6 5 5 5 5 5 4 3 4
2 2 2 3 4 5 6 6 6 5 5 4 4 4 4 3 2 2 2 2 3 1 1 2 2 3 2 3 4 4 4 5 4 4 4 3 3 3
1 1 2 3 4 2 4 6 7 8 7 6 5 5 5 4 4 3 3 3 3 2 0 1 1 2 1 3 4 3 3 4 3 3 4 3 3 2
1 2 2 2 2 2 2 3 4 4 4 4 4 5 4 3 4 4 4 2 0 0 1 1 0 0 0 1 4 4 3 3 2 3 3 2 2 1
2 1 2 2 3 4 2 2 3 3 3 3 3 3 3 4 3 2 2 2 1 1 0 1 0 1 1 1 2 3 2 2 2 3 3 2 2 1
2 2 3 4 4 5 2 2 3 3 3 3 3 3 2 1 2 3 4 3 2 1 1 1 1 1 1 1 0 1 0 1 2 3 3 2 2 2
2 2 2 4 5 5 4 3 3 3 1 1 1 2 2 1 1 1 1 3 3 2 3 2 1 0 1 1 1 1 0 0 1 2 2 2 2 2
3 2 3 5 5 5 4 2 2 1 0 0 1 1 1 1 1 1 1 1 1 2 3 3 2 2 2 1 1 1 1 0 0 0 1 2 1 0
2 3 4 5 4 3 2 2 2 0 1 1 1 1 1 1 0 1 1 2 3 3 1 1 3 3 2 2 1 1 0 1 0 0 0 1 0 1
2 2 4 5 3 2 2 2 1 1 1 2 1 1 1 0 1 1 0 1 2 3 3 2 1 3 2 2 2 2 1 1 1 0 1 1 0 1
2 1 1 1 1 1 1 0 0 1 1 1 1 1 1 1 0 0 0 1 1 0 1 2 3 3 3 3 2 1 1 0 1 1 1 1 1 0
2 1 1 2 1 1 1 0 0 0 0 1 1 1 1 1 0 0 1 1 1 1 1 1 2 3 3 3 2 2 1 1 0 1 1 1 1 2
2 1 1 2 1 1 1 1 1 1 0 1 1 1 1 1 1 1 1 1 1 1 1 1 2 3 3 1 2 2 2 2 1 1 1 1 1 2
1 1 2 2 2 2 2 1 1 1 1 1 1 1 1 1 1 1 1 2 2 1 1 1 1 2 3 2 1 1 2 2 2 1 1 1 1 1
2 2 2 2 2 2 2 2 2 1 1 1 1 1 1 2 1 1 2 3 2 2 2 1 1 3 3 4 3 2 2 4 2 2 1 2 2 2
2 2 2 2 2 2 2 2 2 2 1 1 1 1 1 1 2 2 2 2 2 2 2 2 2 3 2 3 3 3 2 3 5 7 5 3 1 1
2 2 2 2 2 2 2 3 2 2 2 2 2 1 1 1 1 1 2 2 3 3 3 2 2 3 3 3 4 4 4 3 3 4 4 6 5 3
Wind_Direction
217 219 228 241 240 236 224 219 236 266 271 260 261 254 237 239 251 250 249 253 249 245 240 236 234 234 229 222 226 225 226 231 239 245 252 261 270 279
211 211 226 239 244 243 233 234 236 246 265 263 255 255 251 259 260 253 251 256 251 246 240 234 231 229 222 216 218 220 217 224 233 241 251 261 271 277
222 222 236 238 241 246 242 245 249 244 261 275 264 254 250 259 273 266 258 253 254 242 237 235 231 227 218 211 208 209 209 212 226 238 247 258 266 279
225 224 240 248 246 246 245 247 249 245 250 269 278 269 258 254 260 268 275 263 257 246 239 237 232 226 216 206 198 195 203 211 222 235 242 247 259 273
225 229 239 239 252 254 250 252 258 259 242 250 270 278 274 269 272 286 285 276 271 260 248 240 229 220 208 198 192 191 201 211 219 227 234 246 259 271
231 232 238 239 240 250 257 253 256 261 245 249 265 269 266 269 250 275 298 298 291 294 268 248 224 209 201 194 192 190 195 209 220 218 225 241 257 271
237 238 242 249 254 261 267 266 256 257 254 255 262 268 263 260 251 252 268 297 306 284 272 252 219 214 203 195 192 187 192 205 217 215 222 231 248 269
239 259 266 272 277 280 277 276 266 257 252 253 258 251 256 252 243 237 246 282 290 294 269 261 183 208 218 202 189 184 195 206 217 212 208 214 232 266
244 265 291 300 306 304 294 289 282 269 259 252 247 245 243 234 223 236 241 245 257 257 240 266 194 213 218 199 179 185 197 204 218 202 192 203 219 235
270 246 253 284 281 287 296 302 296 289 277 269 250 250 247 230 219 222 225 230 314 346 140 203 277 326 346 212 187 195 203 206 208 181 173 180 196 211
303 288 276 271 279 291 294 298 302 305 313 296 278 259 246 236 218 189 183 171 260 272 126 130 84 6 355 274 223 201 187 195 196 180 175 178 185 157
309 298 289 282 283 291 277 254 273 289 309 330 342 343 324 288 256 215 197 192 205 235 209 136 127 59 359 324 299 243 211 221 199 176 175 168 137 112
283 290 282 282 285 291 288 261 248 261 285 325 330 335 338 342 327 297 206 196 193 222 196 151 148 130 170 273 307 260 263 212 194 194 187 159 134 121
269 271 269 280 287 293 294 266 267 281 201 284 310 307 319 330 337 11 54 91 161 202 199 173 166 181 176 235 259 293 353 120 138 184 176 151 137 116
272 275 286 294 304 312 309 281 287 252 182 207 245 266 262 262 337 32 55 76 58 46 97 171 161 167 168 183 196 192 195 321 28 142 125 132 176 164
307 305 314 320 321 331 333 328 312 218 211 215 217 226 231 115 55 65 75 93 66 31 31 50 121 155 155 151 160 166 160 187 219 183 109 43 93 137
302 322 329 327 336 336 342 340 264 217 216 191 181 180 166 116 80 24 53 92 114 157 31 38 51 78 102 136 137 147 142 130 169 150 119 83 360 344
304 284 273 268 232 225 209 196 214 218 192 173 181 184 173 161 141 71 81 109 133 157 154 105 98 79 60 42 53 143 130 136 101 114 116 125 329 330
306 263 251 252 230 211 200 195 210 215 192 186 206 187 164 161 160 160 144 123 124 151 171 165 142 123 117 66 359 26 128 130 104 100 66 73 217 286
300 259 251 248 230 200 194 193 181 161 159 177 186 163 156 162 167 169 169 156 147 149 147 146 164 158 157 164 157 12 41 117 136 123 51 40 27 346
287 271 254 240 234 204 192 190 183 178 180 184 177 173 171 166 171 177 171 164 154 157 160 181 202 123 106 100 98 63 27 35 76 117 117 81 32 10
272 262 252 236 227 211 192 187 181 177 176 174 185 192 187 173 176 180 176 175 163 147 129 122 112 102 89 112 119 114 80 52 58 66 65 70 137 167
260 257 251 240 234 215 193 185 187 190 187 183 190 198 191 180 186 181 174 164 146 136 126 122 104 86 84 108 116 114 103 88 66 57 33 27 35 46
Height
1426 1428 1430 1431 1433 1434 1434 1434 1435 1431 1429 1429 1430 1430 1431 1431 1431 1431 1431 1431 1431 1432 1432 1433 1433 1434 1435 1436 1437 1437 1438 1438 1439 1439 1439 1438 1438 1437
1422 1424 1426 1427 1428 1429 1429 1430 1430 1429 1425 1424 1425 1425 1426 1426 1426 1426 1425 1425 1425 1426 1426 1427 1427 1428 1429 1430 1432 1432 1433 1433 1434 1434 1434 1433 1433 1431
1418 1420 1421 1423 1424 1424 1424 1424 1425 1424 1421 1419 1420 1420 1421 1420 1420 1420 1420 1419 1420 1420 1420 1421 1422 1423 1424 1425 1426 1427 1428 1428 1429 1429 1429 1428 1428 1427
1414 1415 1416 1418 1419 1419 1419 1419 1419 1419 1417 1414 1415 1415 1415 1415 1415 1414 1414 1414 1414 1414 1415 1415 1416 1417 1418 1419 1420 1422 1423 1423 1424 1424 1424 1424 1423 1422
1410 1411 1412 1413 1413 1414 1414 1414 1414 1414 1413 1411 1410 1411 1410 1410 1410 1409 1409 1409 1409 1409 1409 1410 1411 1412 1412 1414 1415 1417 1418 1419 1419 1420 1419 1419 1419 1418
1406 1407 1408 1409 1409 1409 1409 1409 1409 1409 1408 1407 1406 1406 1406 1406 1406 1405 1404 1404 1404 1404 1405 1405 1406 1407 1408 1410 1411 1412 1413 1414 1414 1415 1415 1415 1414 1414
1403 1403 1404 1404 1405 1405 1405 1405 1405 1404 1404 1403 1402 1402 1401 1401 1401 1401 1401 1400 1400 1400 1400 1401 1402 1403 1404 1405 1406 1408 1409 1410 1410 1411 1410 1410 1410 1409
1399 1399 1400 1400 1400 1400 1401 1401 1401 1400 1399 1399 1398 1397 1397 1398 1398 1398 1398 1397 1396 1398 1397 1397 1399 1399 1400 1401 1402 1404 1405 1405 1406 1406 1406 1406 1406 1405
1395 1395 1395 1395 1396 1396 1396 1396 1396 1396 1396 1396 1394 1393 1394 1394 1394 1394 1394 1394 1393 1394 1395 1394 1395 1395 1397 1398 1398 1400 1401 1402 1402 1402 1402 1402 1402 1402
1392 1392 1392 1392 1392 1392 1392 1391 1391 1391 1391 1391 1390 1390 1390 1391 1391 1391 1391 1391 1391 1391 1392 1391 1391 1392 1393 1394 1395 1397 1398 1398 1399 1399 1399 1399 1399 1399
1389 1389 1389 1389 1389 1389 1389 1388 1387 1387 1387 1387 1387 1387 1387 1387 1388 1388 1388 1388 1387 1387 1389 1389 1389 1389 1390 1391 1393 1394 1395 1395 1396 1396 1396 1397 1397 1397
1385 1385 1386 1385 1385 1385 1385 1384 1384 1383 1383 1383 1383 1383 1383 1383 1384 1385 1385 1385 1385 1385 1386 1386 1386 1387 1388 1389 1390 1391 1392 1392 1393 1393 1394 1394 1394 1394
1382 1382 1382 1382 1382 1382 1382 1381 1380 1380 1380 1380 1380 1380 1380 1380 1381 1381 1382 1382 1382 1382 1383 1384 1384 1385 1386 1387 1387 1389 1389 1390 1390 1391 1391 1392 1392 1392
1379 1378 1378 1378 1378 1378 1378 1377 1377 1377 1377 1377 1377 1377 1377 1377 1378 1378 1378 1379 1380 1380 1381 1381 1381 1382 1383 1383 1384 1385 1387 1387 1388 1389 1389 1390 1390 1391
1376 1376 1375 1374 1374 1374 1374 1374 1374 1374 1374 1373 1374 1374 1375 1375 1375 1375 1376 1376 1377 1377 1378 1379 1379 1380 1381 1381 1382 1383 1383 1385 1386 1387 1387 1388 1388 1388
1373 1372 1371 1371 1370 1370 1370 1370 1370 1371 1371 1371 1371 1372 1372 1373 1373 1374 1374 1374 1374 1375 1376 1377 1377 1378 1379 1380 1380 1381 1382 1383 1384 1385 1386 1387 1387 1387
1370 1368 1367 1367 1367 1367 1367 1367 1368 1368 1368 1369 1369 1369 1370 1371 1371 1372 1372 1372 1372 1373 1373 1374 1375 1376 1377 1378 1379 1380 1381 1382 1383 1384 1385 1385 1386 1386
1367 1365 1364 1364 1364 1364 1364 1365 1365 1365 1366 1367 1367 1368 1368 1369 1369 1370 1371 1371 1371 1371 1372 1372 1373 1374 1376 1377 1380 1379 1380 1381 1382 1383 1384 1384 1384 1385
1363 1362 1361 1361 1361 1361 1362 1363 1363 1364 1364 1365 1366 1366 1367 1368 1368 1369 1369 1369 1370 1370 1371 1371 1372 1373 1374 1376 1378 1380 1380 1381 1382 1382 1383 1384 1384 1384
1360 1360 1359 1359 1359 1359 1360 1361 1361 1362 1363 1364 1364 1365 1366 1366 1367 1367 1368 1368 1369 1369 1370 1370 1371 1372 1374 1375 1377 1379 1380 1381 1381 1382 1382 1383 1384 1384
1358 1357 1357 1357 1357 1358 1358 1359 1360 1361 1362 1362 1363 1364 1365 1365 1366 1367 1367 1367 1368 1368 1369 1369 1371 1373 1374 1375 1377 1378 1380 1381 1382 1382 1382 1383 1383 1383
1355 1355 1355 1355 1355 1356 1356 1357 1358 1359 1360 1361 1362 1362 1363 1364 1365 1365 1366 1366 1367 1367 1368 1369 1371 1372 1373 1374 1376 1378 1380 1381 1382 1383 1384 1384 1384 1384
1353 1353 1352 1352 1353 1353 1354 1355 1356 1357 1358 1359 1360 1361 1362 1363 1363 1364 1365 1365 1366 1367 1368 1369 1370 1372 1373 1375 1376 1378 1379 1381 1383 1384 1385 1385 1386 1387